Weather Roundup
Issued by NWS Chicago, IL

Home | Current Version | Previous Version | Text Only | Print | Product List | Glossary On
Versions: 1 2 3 4 5 6 7 8 9 10 11 12 13 14 15 16 17 18 19 20 21 22 23 24 25 26 27 28 29 30 31 32 33 34 35 36 37 38 39 40 41 42 43 44 45 46 47 48 49 50
000
NZUS59 KLOT 162308
HRRLOT

CHICAGO AREA WEATHER ROUNDUP
NATIONAL WEATHER SERVICE CHICAGO/ROMEOVILLE IL
500 PM CST SAT DEC 16 2017

NOTE: "FAIR" INDICATES FEW OR NO CLOUDS BELOW 12,000 FEET WITH NO
SIGNIFICANT WEATHER AND/OR OBSTRUCTIONS TO VISIBILITY.

* THESE STATIONS ARE NOT UNDER NWS QUALITY CONTROL. THEY ALSO MAY NOT
  REPORT WEATHER SUCH AS PRECIPITATION OR FOG.

ILZ005-006-012>014-019>023-170000-
NORTHEAST ILLINOIS

CITY           SKY/WX    TMP DP  RH WIND       PRES   REMARKS
OHARE          PTCLDY    38  25  59 CALM      29.96R
MIDWAY         PTCLDY    45  26  47 CALM      29.97R
AURORA         CLEAR     36  24  62 SE5       29.96R
LANSING*       CLEAR     38  28  67 S3        29.98R
JOLIET*        CLEAR     38  26  63 CALM      29.97R
WAUKEGAN       CLEAR     35  30  82 E3        29.98R
DUPAGE AIRPORT CLEAR     36  26  67 CALM      29.96R
WHEELING       CLEAR     39  29  67 E5        29.98R
KANKAKEE*      CLEAR     44  26  49 SW3       29.97R
MORRIS*        CLEAR     44  26  47 CALM      29.96R
LEWIS AIRPORT* CLEAR     43  27  52 CALM      29.97R
NORTHERLY ISL    N/A     37  30  76 CALM        N/A
$$

WIZ051-052-058>065-066-070>072-170000-
SOUTHEAST WISCONSIN

CITY           SKY/WX    TMP DP  RH WIND       PRES   REMARKS
MILWAUKEE      CLOUDY    37  33  85 NE13      29.99R
KENOSHA*       CLEAR     33  25  72 NE6       29.99R WCI  28
RACINE*        CLEAR     33  27  78 CALM      30.01R
BURLINGTON     CLEAR     47  47  99 NE5       29.99R
WAUKESHA       CLOUDY    30  28  93 NE9       29.99R WCI  22
WEST BEND      CLOUDY    30  28  93 NE9       30.00S WCI  22
$$

INZ001>003-010>013-019-020-170000-
NORTHWEST INDIANA

CITY           SKY/WX    TMP DP  RH WIND       PRES   REMARKS
GARY*          CLEAR     39  25  56 CALM      29.98R
MICHIGAN CITY* NOT AVBL
RENSSELAER*    NOT AVBL
VALPARAISO     CLEAR     42  27  55 CALM      29.99R
$$

LMZ740>746-170000-
SOUTHERN LAKE MICHIGAN

STATION/POSITION TIME  SKY/WX   TEMP WIND        PRES    VSBY
                                AIR  DIR/SP/G
                 (UTC)          (F)  (DEG/KT/KT) (MB)    (MI)
HARRISON CRIB    2240            42  100/  8/  8   N/A
BURNHAM HARBOR   2300            37   CALM  /  3   N/A
CALUMET HARBOR   2242            38   50/  4/  7 1014.4R
BURNS HARBOR     2240            38   80/  4/  6 1015.6R
MICHIGAN CITY    2240            38   50/  9/  9   N/A
$$

ABBREVIATIONS USED IN REMARKS
   TC - TEMPERATURE IN CELSIUS
  WCI - WIND CHILL INDEX
   HX - HEAT INDEX
  VSB - VISIBILITY
$$



USA.gov is the U.S. government's official web portal to all federal, state and local government web resources and services.